TimeCDT,TemperatureF,Dew PointF,Humidity,Sea Level PressureIn,VisibilityMPH,Wind Direction,Wind SpeedMPH,Gust SpeedMPH,PrecipitationIn,Events,Conditions,WindDirDegrees,DateUTC
12:15 AM,72.9,65.7,78,29.97,10.0,South,10.4,-,N/A,,Scattered Clouds,190,2013-08-21 05:15:00
12:35 AM,72.1,65.7,80,29.97,10.0,South,10.4,-,N/A,,Clear,190,2013-08-21 05:35:00
12:55 AM,71.8,65.5,80,29.96,10.0,South,8.1,-,N/A,,Scattered Clouds,190,2013-08-21 05:55:00
1:15 AM,71.6,65.3,80,29.95,10.0,South,8.1,16.1,N/A,,Scattered Clouds,190,2013-08-21 06:15:00
1:35 AM,71.1,65.3,82,29.95,10.0,South,8.1,-,N/A,,Clear,190,2013-08-21 06:35:00
1:55 AM,71.1,64.9,81,29.95,10.0,South,10.4,-,N/A,,Clear,190,2013-08-21 06:55:00
2:15 AM,70.7,64.9,82,29.95,10.0,South,9.2,-,N/A,,Clear,180,2013-08-21 07:15:00
2:35 AM,70.9,64.9,81,29.95,10.0,South,9.2,-,N/A,,Clear,190,2013-08-21 07:35:00
2:55 AM,70.3,64.8,82,29.95,10.0,South,8.1,-,N/A,,Clear,190,2013-08-21 07:55:00
3:15 AM,69.8,64.6,83,29.96,10.0,South,8.1,-,N/A,,Clear,190,2013-08-21 08:15:00
3:35 AM,69.3,64.6,85,29.95,10.0,South,9.2,-,N/A,,Clear,190,2013-08-21 08:35:00
3:55 AM,68.9,64.4,86,29.95,10.0,South,6.9,-,N/A,,Clear,190,2013-08-21 08:55:00
4:15 AM,68.9,64.4,86,29.95,10.0,SSW,8.1,-,N/A,,Clear,200,2013-08-21 09:15:00
4:35 AM,68.7,64.4,86,29.95,10.0,SSW,8.1,-,N/A,,Clear,200,2013-08-21 09:35:00
4:55 AM,68.4,64.4,87,29.95,10.0,SSW,8.1,-,N/A,,Clear,200,2013-08-21 09:55:00
5:15 AM,68.2,64.4,88,29.94,10.0,South,8.1,-,N/A,,Clear,190,2013-08-21 10:15:00
5:35 AM,68.0,64.4,88,29.93,10.0,South,6.9,-,N/A,,Clear,190,2013-08-21 10:35:00
5:55 AM,68.0,64.4,88,29.94,10.0,SSW,5.8,-,N/A,,Clear,200,2013-08-21 10:55:00
6:15 AM,67.5,64.2,89,29.95,10.0,SSW,6.9,-,N/A,,Clear,200,2013-08-21 11:15:00
6:35 AM,67.5,64.0,89,29.95,10.0,South,6.9,-,N/A,,Clear,190,2013-08-21 11:35:00
6:55 AM,68.0,64.4,88,29.96,10.0,SSW,5.8,-,N/A,,Clear,200,2013-08-21 11:55:00
7:15 AM,68.7,64.6,87,29.96,10.0,South,4.6,-,N/A,,Scattered Clouds,190,2013-08-21 12:15:00
7:35 AM,69.1,64.8,86,29.96,10.0,South,4.6,-,N/A,,Scattered Clouds,180,2013-08-21 12:35:00
7:55 AM,70.2,65.1,84,29.96,10.0,South,6.9,-,N/A,,Clear,190,2013-08-21 12:55:00
8:15 AM,70.9,65.3,82,29.96,10.0,SSW,6.9,-,N/A,,Clear,200,2013-08-21 13:15:00
8:35 AM,72.7,66.0,80,29.97,10.0,SSW,8.1,-,N/A,,Scattered Clouds,210,2013-08-21 13:35:00
8:55 AM,73.8,66.4,78,29.96,10.0,South,11.5,-,N/A,,Scattered Clouds,190,2013-08-21 13:55:00
9:15 AM,73.8,66.4,78,29.95,10.0,SSW,8.1,-,N/A,,Clear,200,2013-08-21 14:15:00
9:35 AM,75.6,66.9,74,29.95,10.0,SSW,8.1,-,N/A,,Clear,200,2013-08-21 14:35:00
9:55 AM,76.5,67.1,73,29.95,10.0,SSW,8.1,-,N/A,,Clear,200,2013-08-21 14:55:00
10:15 AM,76.1,66.9,73,29.95,10.0,SSW,9.2,-,N/A,,Clear,200,2013-08-21 15:15:00
10:35 AM,76.5,67.3,73,29.94,10.0,South,9.2,-,N/A,,Clear,190,2013-08-21 15:35:00
10:55 AM,78.3,67.8,70,29.94,10.0,South,9.2,-,N/A,,Clear,190,2013-08-21 15:55:00
11:15 AM,79.3,68.0,68,29.94,10.0,South,8.1,-,N/A,,Clear,190,2013-08-21 16:15:00
11:35 AM,80.8,68.2,65,29.93,10.0,South,11.5,16.1,N/A,,Clear,180,2013-08-21 16:35:00
11:55 AM,81.7,68.4,64,29.93,10.0,SSW,13.8,18.4,N/A,,Clear,200,2013-08-21 16:55:00
12:15 PM,82.8,68.9,63,29.92,10.0,SSW,15.0,-,N/A,,Clear,200,2013-08-21 17:15:00
12:35 PM,83.5,69.1,62,29.92,10.0,SSW,13.8,17.3,N/A,,Clear,210,2013-08-21 17:35:00
12:55 PM,84.2,68.5,59,29.92,10.0,SSW,13.8,19.6,N/A,,Clear,200,2013-08-21 17:55:00
1:15 PM,84.7,68.7,58,29.93,10.0,South,15.0,-,N/A,,Clear,190,2013-08-21 18:15:00
1:35 PM,85.6,68.7,57,29.93,10.0,SW,13.8,18.4,N/A,,Clear,230,2013-08-21 18:35:00
1:55 PM,86.2,68.7,56,29.92,10.0,SW,9.2,16.1,N/A,,Clear,230,2013-08-21 18:55:00
2:15 PM,86.4,68.7,55,29.93,10.0,SSW,9.2,16.1,N/A,,Clear,210,2013-08-21 19:15:00
2:35 PM,86.2,69.1,57,29.93,10.0,SSW,12.7,17.3,N/A,,Mostly Cloudy,210,2013-08-21 19:35:00
2:55 PM,84.6,69.1,60,29.93,10.0,SW,10.4,-,N/A,,Overcast,220,2013-08-21 19:55:00
3:15 PM,86.0,69.3,57,29.93,10.0,WSW,12.7,18.4,N/A,,Mostly Cloudy,250,2013-08-21 20:15:00
3:35 PM,83.8,69.8,63,29.93,10.0,WSW,10.4,-,N/A,,Mostly Cloudy,250,2013-08-21 20:35:00
3:55 PM,84.2,69.6,61,29.92,10.0,West,10.4,17.3,N/A,,Overcast,260,2013-08-21 20:55:00
4:15 PM,83.3,69.8,64,29.92,10.0,West,8.1,-,N/A,,Overcast,260,2013-08-21 21:15:00
4:35 PM,82.9,69.8,64,29.91,10.0,WSW,10.4,16.1,N/A,Thunderstorm,Overcast,240,2013-08-21 21:35:00
4:55 PM,81.7,69.8,67,29.90,10.0,WSW,8.1,-,N/A,Thunderstorm,Mostly Cloudy,250,2013-08-21 21:55:00
5:15 PM,80.6,69.8,70,29.90,10.0,SW,10.4,-,N/A,Thunderstorm,Mostly Cloudy,230,2013-08-21 22:15:00
5:35 PM,80.1,70.0,71,29.92,10.0,SW,9.2,-,N/A,Thunderstorm,Overcast,220,2013-08-21 22:35:00
5:55 PM,78.8,70.2,75,29.91,10.0,WSW,13.8,20.7,N/A,Thunderstorm,Thunderstorm,240,2013-08-21 22:55:00
6:15 PM,69.4,66.2,89,29.99,1.5,North,17.3,27.6,0.22,Rain-Thunderstorm,Heavy Thunderstorms and Rain,10,2013-08-21 23:15:00
6:35 PM,67.8,63.5,86,29.97,3.0,North,25.3,33.4,0.47,Rain-Thunderstorm,Heavy Thunderstorms and Rain,350,2013-08-21 23:35:00
6:55 PM,63.5,61.3,93,30.02,2.5,SW,12.7,-,0.87,Rain-Thunderstorm,Light Thunderstorms and Rain,220,2013-08-21 23:55:00
7:15 PM,67.1,63.5,88,30.00,10.0,West,4.6,16.1,N/A,Thunderstorm,Scattered Clouds,270,2013-08-22 00:15:00
7:35 PM,68.2,65.3,90,29.99,10.0,WNW,8.1,-,N/A,,Clear,290,2013-08-22 00:35:00
7:55 PM,67.3,65.7,95,29.98,10.0,NW,6.9,-,N/A,,Scattered Clouds,320,2013-08-22 00:55:00
8:15 PM,66.7,65.3,95,29.98,10.0,NW,4.6,-,N/A,,Scattered Clouds,310,2013-08-22 01:15:00
8:35 PM,66.6,65.5,96,29.99,10.0,North,4.6,-,N/A,,Clear,360,2013-08-22 01:35:00
8:55 PM,66.0,63.9,93,30.01,10.0,North,4.6,-,N/A,,Clear,10,2013-08-22 01:55:00
9:15 PM,64.4,63.3,96,30.02,10.0,North,4.6,-,N/A,,Clear,10,2013-08-22 02:15:00
9:35 PM,63.5,62.6,97,30.02,10.0,ENE,3.5,-,N/A,,Clear,70,2013-08-22 02:35:00
9:55 PM,62.8,62.2,98,30.02,0.5,Calm,Calm,-,N/A,Fog,Fog,0,2013-08-22 02:55:00
10:15 PM,62.4,62.1,99,30.03,1.5,Calm,Calm,-,N/A,,Mist,0,2013-08-22 03:15:00
10:35 PM,61.3,61.0,99,30.04,0.2,Calm,Calm,-,N/A,Fog,Fog,0,2013-08-22 03:35:00
10:55 PM,61.3,61.2,99,30.04,0.5,Calm,Calm,-,N/A,Fog,Fog,0,2013-08-22 03:55:00
11:15 PM,61.0,60.8,99,30.05,0.8,Calm,Calm,-,N/A,,Mist,0,2013-08-22 04:15:00
11:35 PM,60.1,59.9,99,30.04,0.2,Calm,Calm,-,N/A,Fog,Fog,0,2013-08-22 04:35:00
11:55 PM,59.2,59.2,100,30.04,0.2,Calm,Calm,-,N/A,Fog,Fog,0,2013-08-22 04:55:00